When you browse on this site, cookies collect data to enhance your experience and personalize the content and advertising you see.
Visit our Privacy Policy to learn more. By continuing to use the site, you agree to this use of cookies and data.
  • In Romania
  • List of Countries
  • For 7 days
  • Water Temperature
  • Weather Map
  • Weather Widgets
  • user-avatar
    Login

    Hourly Weather Sopot

    Today, 22 August, Thursday

    Time Temperature Precipitation Wind Pressure Humidity
    00:00 +13°C° 0 mm 3 mps 770 mmHg 83%
    01:00 +13°C° 0 mm 4 mps 770 mmHg 84%
    02:00 +13°C° 0 mm 3 mps 770 mmHg 86%
    03:00 +13°C° 0 mm 3 mps 770 mmHg 88%
    04:00 +12°C° 0 mm 3 mps 770 mmHg 90%
    05:00 +14°C° 0 mm 3 mps 771 mmHg 85%
    06:00 +16°C° 0 mm 2 mps 771 mmHg 81%
    07:00 +17°C° 0 mm 2 mps 771 mmHg 77%
    08:00 +19°C° 0 mm 2 mps 771 mmHg 68%
    09:00 +21°C° 0 mm 1 mps 771 mmHg 59%
    10:00 +23°C° 0 mm 1 mps 771 mmHg 50%
    11:00 +23°C° 0 mm 1 mps 771 mmHg 48%
    12:00 +24°C° 0 mm 1 mps 771 mmHg 46%
    13:00 +25°C° 0 mm 2 mps 771 mmHg 44%
    14:00 +24°C° 0 mm 2 mps 771 mmHg 47%
    15:00 +24°C° 0 mm 3 mps 770 mmHg 50%
    16:00 +22°C° 0 mm 3 mps 770 mmHg 52%
    17:00 +21°C° 0 mm 3 mps 770 mmHg 58%
    18:00 +20°C° 0 mm 3 mps 770 mmHg 63%
    19:00 +18°C° 0 mm 3 mps 770 mmHg 68%
    20:00 +18°C° 0 mm 3 mps 770 mmHg 69%
    21:00 +17°C° 0 mm 3 mps 770 mmHg 69%
    22:00 +17°C° 0 mm 3 mps 770 mmHg 69%
    23:00 +17°C° 0 mm 4 mps 770 mmHg 71%

    Tomorrow, 23 August, Friday

    Time Temperature Precipitation Wind Pressure Humidity
    00:00 +15°C° 0 mm 4 mps 770 mmHg 73%
    01:00 +15°C° 0 mm 4 mps 770 mmHg 75%
    02:00 +15°C° 0 mm 4 mps 770 mmHg 75%
    03:00 +15°C° 0 mm 4 mps 770 mmHg 76%
    04:00 +15°C° 0 mm 4 mps 770 mmHg 77%
    05:00 +17°C° 0 mm 4 mps 770 mmHg 74%
    06:00 +18°C° 0 mm 4 mps 770 mmHg 70%
    07:00 +19°C° 0 mm 4 mps 770 mmHg 66%
    08:00 +21°C° 0 mm 4 mps 770 mmHg 61%
    09:00 +22°C° 0 mm 4 mps 770 mmHg 56%
    10:00 +25°C° 0 mm 3 mps 770 mmHg 51%
    11:00 +25°C° 0 mm 3 mps 770 mmHg 48%
    12:00 +26°C° 0 mm 3 mps 770 mmHg 45%
    13:00 +27°C° 0 mm 3 mps 770 mmHg 42%
    14:00 +27°C° 0 mm 3 mps 770 mmHg 42%
    15:00 +27°C° 0 mm 3 mps 769 mmHg 42%
    16:00 +27°C° 0 mm 3 mps 769 mmHg 42%
    17:00 +25°C° 0 mm 3 mps 769 mmHg 48%
    18:00 +22°C° 0 mm 3 mps 769 mmHg 55%
    19:00 +20°C° 0 mm 3 mps 769 mmHg 62%
    20:00 +20°C° 0 mm 3 mps 769 mmHg 62%
    21:00 +19°C° 0 mm 3 mps 769 mmHg 62%
    22:00 +18°C° 0 mm 3 mps 769 mmHg 62%
    23:00 +18°C° 0 mm 3 mps 769 mmHg 63%

    Day after tomorrow, 24 August, Saturday

    Time Temperature Precipitation Wind Pressure Humidity
    00:00 +18°C° 0 mm 3 mps 769 mmHg 64%
    01:00 +17°C° 0 mm 3 mps 769 mmHg 66%
    02:00 +17°C° 0 mm 2 mps 769 mmHg 68%
    03:00 +17°C° 0 mm 2 mps 768 mmHg 70%
    04:00 +17°C° 0 mm 2 mps 768 mmHg 73%
    05:00 +18°C° 0 mm 2 mps 768 mmHg 70%
    06:00 +19°C° 0 mm 2 mps 768 mmHg 68%
    07:00 +20°C° 0 mm 2 mps 768 mmHg 65%
    08:00 +23°C° 0 mm 2 mps 768 mmHg 59%
    09:00 +24°C° 0 mm 2 mps 768 mmHg 54%
    10:00 +26°C° 0 mm 2 mps 769 mmHg 48%
    11:00 +26°C° 0 mm 2 mps 768 mmHg 46%
    12:00 +27°C° 0 mm 2 mps 768 mmHg 44%
    13:00 +27°C° 0 mm 3 mps 768 mmHg 42%
    14:00 +27°C° 0 mm 3 mps 768 mmHg 45%
    15:00 +26°C° 0 mm 3 mps 767 mmHg 47%
    16:00 +26°C° 0 mm 4 mps 767 mmHg 50%
    17:00 +23°C° 0 mm 4 mps 767 mmHg 57%
    18:00 +21°C° 0 mm 4 mps 767 mmHg 64%
    19:00 +20°C° 0 mm 3 mps 767 mmHg 70%
    20:00 +19°C° 0 mm 3 mps 767 mmHg 74%
    21:00 +19°C° 0 mm 3 mps 767 mmHg 77%
    22:00 +18°C° 0 mm 3 mps 767 mmHg 80%
    23:00 +18°C° 0 mm 3 mps 767 mmHg 80%

    25 August, Sunday

    Time Temperature Precipitation Wind Pressure Humidity
    00:00 +18°C° 0 mm 3 mps 767 mmHg 80%
    01:00 +17°C° 0 mm 2 mps 767 mmHg 80%
    02:00 +17°C° 0 mm 2 mps 767 mmHg 80%
    03:00 +17°C° 0 mm 2 mps 767 mmHg 81%
    04:00 +16°C° 0 mm 2 mps 767 mmHg 81%
    05:00 +18°C° 0 mm 3 mps 767 mmHg 77%
    06:00 +19°C° 0 mm 3 mps 767 mmHg 72%
    07:00 +20°C° 0 mm 3 mps 767 mmHg 68%
    08:00 +21°C° 0 mm 4 mps 767 mmHg 63%
    09:00 +23°C° 0 mm 4 mps 768 mmHg 59%
    10:00 +25°C° 0 mm 5 mps 768 mmHg 54%
    11:00 +26°C° 0 mm 5 mps 768 mmHg 54%
    12:00 +26°C° 0 mm 5 mps 767 mmHg 53%
    13:00 +27°C° 0 mm 5 mps 767 mmHg 52%
    14:00 +26°C° 0 mm 5 mps 767 mmHg 53%
    15:00 +26°C° 0 mm 6 mps 767 mmHg 54%
    16:00 +26°C° 0 mm 6 mps 767 mmHg 55%
    17:00 +24°C° 0 mm 6 mps 767 mmHg 60%
    18:00 +22°C° 0 mm 5 mps 767 mmHg 65%
    19:00 +21°C° 0 mm 5 mps 767 mmHg 70%
    20:00 +21°C° 0 mm 5 mps 767 mmHg 72%
    21:00 +20°C° 0 mm 5 mps 767 mmHg 74%
    22:00 +20°C° 0 mm 5 mps 767 mmHg 76%
    23:00 +19°C° 0 mm 5 mps 767 mmHg 76%

    26 August, Monday

    Time Temperature Precipitation Wind Pressure Humidity
    00:00 +19°C° 0 mm 4 mps 767 mmHg 75%
    01:00 +18°C° 0 mm 4 mps 767 mmHg 75%
    02:00 +18°C° 0 mm 4 mps 767 mmHg 76%
    03:00 +18°C° 0 mm 3 mps 766 mmHg 78%
    04:00 +17°C° 0 mm 3 mps 766 mmHg 79%
    05:00 +18°C° 0 mm 3 mps 766 mmHg 76%
    06:00 +19°C° 0 mm 3 mps 766 mmHg 72%
    07:00 +20°C° 0 mm 3 mps 766 mmHg 69%
    08:00 +22°C° 0 mm 4 mps 766 mmHg 65%
    09:00 +23°C° 0 mm 4 mps 766 mmHg 61%
    10:00 +26°C° 0 mm 4 mps 766 mmHg 57%
    11:00 +27°C° 0 mm 4 mps 766 mmHg 56%
    12:00 +27°C° 0 mm 4 mps 766 mmHg 55%
    13:00 +28°C° 0 mm 4 mps 766 mmHg 54%
    14:00 +29°C° 0 mm 4 mps 765 mmHg 53%
    15:00 +29°C° 0 mm 4 mps 765 mmHg 53%
    16:00 +29°C° 0 mm 4 mps 765 mmHg 53%
    17:00 +28°C° 0 mm 4 mps 765 mmHg 59%
    18:00 +26°C° 0 mm 4 mps 765 mmHg 65%
    19:00 +25°C° 0 mm 4 mps 764 mmHg 72%
    20:00 +23°C° 0.1 mm 4 mps 765 mmHg 73%
    21:00 +22°C° 0.1 mm 4 mps 765 mmHg 75%
    22:00 +22°C° 0.1 mm 4 mps 765 mmHg 77%
    23:00 +21°C° 0.3 mm 3 mps 765 mmHg 78%

    27 August, Tuesday

    Time Temperature Precipitation Wind Pressure Humidity
    00:00 +21°C° 0.3 mm 3 mps 765 mmHg 79%
    01:00 +20°C° 0.3 mm 3 mps 765 mmHg 80%
    02:00 +20°C° 0 mm 3 mps 764 mmHg 81%
    03:00 +20°C° 0 mm 3 mps 764 mmHg 82%
    04:00 +20°C° 0 mm 3 mps 764 mmHg 83%
    05:00 +21°C° 0 mm 3 mps 764 mmHg 81%
    06:00 +22°C° 0 mm 3 mps 764 mmHg 78%
    07:00 +22°C° 0 mm 3 mps 764 mmHg 76%
    08:00 +25°C° 0 mm 3 mps 764 mmHg 70%
    09:00 +27°C° 0 mm 3 mps 764 mmHg 63%
    10:00 +29°C° 0 mm 3 mps 764 mmHg 57%
    11:00 +30°C° 0 mm 3 mps 764 mmHg 54%
    12:00 +31°C° 0 mm 3 mps 764 mmHg 50%
    13:00 +33°C° 0 mm 3 mps 764 mmHg 47%
    14:00 +31°C° 0.2 mm 3 mps 764 mmHg 49%
    15:00 +31°C° 0.2 mm 3 mps 763 mmHg 51%
    16:00 +30°C° 0.2 mm 3 mps 763 mmHg 53%
    17:00 +29°C° 0.3 mm 3 mps 763 mmHg 58%
    18:00 +27°C° 0.3 mm 3 mps 763 mmHg 64%
    19:00 +26°C° 0.3 mm 3 mps 763 mmHg 70%
    20:00 +25°C° 0.1 mm 3 mps 763 mmHg 72%
    21:00 +24°C° 0.1 mm 3 mps 763 mmHg 73%
    22:00 +24°C° 0.1 mm 3 mps 763 mmHg 75%
    23:00 +22°C° 0 mm 3 mps 763 mmHg 76%
    Show more